Flag for U.S.A. Weather past 2 weeks in Augusta, Georgia, U.S.A.

Now
72 °F

Passing clouds.


Feels Like: 70 °F
Forecast: 71 / 91 °F
Wind: 7 mph from West

Location: Daniel Field

Current Time: Jul 1, 2015 at 3:25:25 AM

Latest Report: Jul 1, 2015 at 2:53 AM


Visibility: 10 mi

Pressure: 29.98 "Hg

Humidity: 87%

Dew point: 68 °F

Location of AugustaLocation

Historic Weather in Augusta — Graph

°F

Augusta temperature yesterday

Maximum temperature yesterday: 91 °F (at 1:53 PM)
Minimum temperature yesterday: 72 °F (at 10:53 PM)
Average temperature yesterday: 78 °F

Past Weeks' High & Low Weather Summary

 TemperatureHumidityPressure
High101 °F (Jun 17, 3:53 PM)91% (Jun 25, 6:53 AM)30.11 "Hg (Jun 25, 6:53 AM)
Low69 °F (Jun 29, 6:53 AM)31% (Jun 25, 3:53 PM)29.81 "Hg (Jun 27, 4:53 PM)
Average85 °F60%30.00 "Hg
* Reported Jun 16 1:53 AM — Jul 1 1:53 AM, Augusta, Weather by CustomWeather, © 2015

Note: Actual official high and low records may vary slightly from our data, if they occured in-between our weather recording intervals... More about our weather records

Advertising

Augusta weather history for previous 24 hours

 ConditionsComfort  
Time TempWeatherWind HumidityBarometerVisibility
1:53 AM
Wed, Jul 1
72 °FOvercast.5 mph91%29.98 "Hg10 mi
11:53 PM
Tue, Jun 30
72 °FClear.6 mph87%29.98 "Hg10 mi
10:53 PM72 °FClear.8 mph87%29.98 "Hg10 mi
9:53 PM73 °FClear.8 mph84%29.97 "Hg10 mi
9:01 PM73 °FLight rain. Broken clouds.5 mph88%29.97 "Hg10 mi
7:53 PM75 °FSunny.7 mph82%29.95 "Hg10 mi
6:53 PM76 °FSunny.7 mph80%29.95 "Hg10 mi
5:53 PM74 °FPassing clouds.7 mph85%29.97 "Hg10 mi
4:53 PM73 °FLight rain. Mostly cloudy.9 mph88%29.99 "Hg10 mi
3:53 PM77 °FScattered clouds.9 mph69%29.98 "Hg10 mi
2:53 PM89 °FThundershowers. Scattered clouds.5 mph46%29.93 "Hg10 mi
1:53 PM91 °FScattered clouds.5 mph42%29.94 "Hg10 mi
12:53 PM90 °FPassing clouds.7 mph47%29.98 "Hg10 mi
11:53 AM88 °FSunny.7 mph52%29.99 "Hg10 mi
10:53 AM86 °FSunny.8 mph55%30.01 "Hg10 mi
9:53 AM83 °FSunny.6 mph61%30.00 "Hg10 mi
8:53 AM79 °FSunny.5 mph67%30.00 "Hg10 mi
7:53 AM75 °FSunny.3 mph71%30.00 "Hg10 mi
6:53 AM74 °FClear.3 mph71%29.98 "Hg10 mi
5:53 AM73 °FClear.3 mph71%29.96 "Hg10 mi
4:53 AM73 °FClear.No wind71%29.97 "Hg10 mi
3:53 AM74 °FClear.3 mph67%29.98 "Hg10 mi
Weather by CustomWeather, © 2015

See weather overviewHow to use our weather pages